Погода Ремонтное

Погода Ремонтное : погода сейчас, прогноз погоды и архив. Всё, что Вы хотите узнать о погоде Ремонтное!

Поиск расширенной информации на нашем сайте:

Полезная информация: Статьи о мрт внутренних органов.

Другие новости

Новости СМИ2

Главная страница сайта

Новости сайта

02.10.2013

Напоминаем, что на нашем новом сайте вы можете получить высокодетализированные прогнозы погоды по пунктам России, СНГ и мира (включающие важные для авиации метеовеличины, такие как направление и скорость ветра, видимость, явления погоды, количество и форма облачности, нижняя и верхняя граница облачности), а также ознакомиться с разнообразными материалами по авиационной метеорологии и подборкой полезных ссылок на эту тему.

Сайт Метеоцентр.Азия посвящён разработке технологий оптимизации авиаметеорологического обслуживания, включая проектирование и перспективное создание нескольких автоматизированных авиаметеорологических систем:
- система выпуска высокодетальных прогностических карт явлений погоды для нижнего воздушного пространства по России и ближнему зарубежью;
- система верификации прогнозов TAF (выпускаемых синоптиками официальных АМСГ РФ и ближнего зарубежья) и AUTOTAF (выпускаемых сайтом Метеоцентр.Азия) - выявление ошибок, онлайн-сопоставление с фактической погодой METAR, автоматическое внесение коррективов в прогнозы при резком отклонении фактической погоды от прогноза, подсчёт оправдываемости прогнозов по элементам и в целом;
- система обработки, анализа и отображения авиаметеорологической информации для применения провайдерами метеорологической информации.

Рекомендуем: Финансовые услуги bmw кредитование мотоциклы bmw.

Погода Ремонтное - сегодня

Время (UTC), дата Ветер
(°,м/с) 
Видим.   Явления Облачность Т
(°С)
Тd
(°С)
f(%) Тe
(°С)
Pmin
(гПа)
dP
(гПа)
Po
(мм)
O2
(г/м3)
Тmin Tmax R s Состояние
почвы
06 24.02.17 270 (З) 4{10}  4000 м  дымка  9/3 300 м верхняя 
[Sc diur, vesp|Ci fib]
+3.2 +0.3 81 +1  1013.1  2.8  750  299  +1.8         
09 24.02.17 270 (З) 10 км    9/5 300 м средняя, верхняя 
[Sc diur, vesp|Ac trans|Ci fib]
+6.1 +0.6 68 +5  1013.6  0.6  750  296           
12 24.02.17 190 (Ю) 10 км    10/10 300 м 
[Sc]
+6.5 +2.4 75 +6  1013.1  -0.4  750  295           
15 24.02.17 160 (Ю) 4000 м  дымка{ливн. осадки}  9/9 300 м кучево-дожд. 
[Cb cap]
+5.4 +3 84 +4  1013  -0.2  750  296    +6.8  0.0     
18 24.02.17 150 (ЮВ) 4000 м  дымка{ливн. осадки}  9/0 верхняя 
[Ci fib]
+4.4 +2.7 89 +4  1013.6  0.6  750  297           
21 24.02.17 220 (ЮЗ) 10 км    10/10 600 м 
[Sc]
+9.1 +3.6 68 +8  1012.7  -0.7  750  292           
00 25.02.17 210 (ЮЗ) 10 км    4/0 верхняя 
[Ci fib]
+7.6 +2.6 71 +6  1013  0.2  750  294           
03 25.02.17 200 (Ю) 10 км    4/0 верхняя 
[Ci fib]
+6 +1.2 71 +5  1013.6  0.5  750  296  +3.9         
06 25.02.17 220 (ЮЗ) 10 км    9/4 600 м средняя, верхняя 
[Sc|Ac und|Ci fib]
+9.2 +2.1 61 +8  1014.2  0.7  751  292           
09 25.02.17 240 (ЮЗ) 5{11}  10 км    10/6 600 м средняя 
[Sc|Ac und]
+11.7 +3.9 59 +11  1013.9  -0.1  751  290           
12 25.02.17 220 (ЮЗ) 3{10}  10 км    10/8 300 м средняя 
[Sc|Ac und]
+12.9 +5.2 59 +13  1011.8  -2  749  287           
15 25.02.17 220 (ЮЗ) 10 км    10/9 300 м средняя 
[Sc|Ac und]
+11.5 +5.2 65 +11  1010.6  -1.2  748  289    +13.4       
18 25.02.17 200 (Ю) 10 км    10/10 300 м кучево-дожд. 
[Cb cap]
+9.7 +5.1 73 +10  1009.9  -0.8  748  290           
21 25.02.17 250 (З) 6-13{15}  4000 м  слаб. ливневой дождь  10/10 300 м кучево-дожд. 
[Cb cap]
+8.2 +6 86 +6  1010.1  0.1  748  292           
00 26.02.17 300 (СЗ) 5{14}  4000 м  слаб. ливневой дождь  10/10 300 м кучево-дожд. 
[Cb cap]
+0.7 -0.4 92 -2  1014.4  3.9  751  302           
03 26.02.17 300 (СЗ) 5{13}  4000 м  дымка  6/6 300 м кучево-дожд. 
[Cb cap]
-0.8 -3.3 83 -4  1018.8  4.2  754  305  -0.8       
06 26.02.17 280 (З) 5{11}  10 км  {ливн. осадки}  ясно 
-0.1 -3.8 76 -3  1022.6  3.8  757  306  -1.4         
09 26.02.17 270 (З) 7-12{12}  10 км    1/1 300 м 
[Cu hum]
+2.4 -3.2 66 -1  1023.9  1.4  758  303           
12 26.02.17 270 (З) 7-14{15}  10 км  {ливн. осадки}  9/9 300 м кучево-дожд. 
[Cb cap]
+3.9 -4.1 56 +1  1023.9  0.1  758  302           
15 26.02.17 270 (З) 4{14}  10 км  {ливн. осадки}  10/4 300 м верхняя 
[Sc diur, vesp|Ci fib]
+1.5 -4.3 65 -1  1024.8  0.9  759  304    +4.1  0.0     
18 26.02.17 270 (З) 10 км  {ливн. осадки}  6/0 верхняя 
[Ci fib]
+0.6 -4 71 -1  1025.7  0.8  759  306           
21 26.02.17 270 (З) 10 км    ясно 
+0.5 -3.5 75 1025.7  759  306           
00 27.02.17 210 (ЮЗ) 10 км    ясно 
-1.8 -3.3 89 -1  1025.4  -0.4  759  308           
03 27.02.17 190 (Ю) 10 км    8/0 средняя, верхняя 
[Ac trans|Ci fib]
-1.3 -3.6 84 -2  1025.1  -0.3  759  308  -1.9         
06 27.02.17 230 (ЮЗ) 10 км    6/0 средняя, верхняя 
[Ac trans|Ci fib]
+0.9 -3.3 73 -1  1025.4  0.4  759  305           
Время (UTC), дата Ветер
(°,м/с) 
Видим.   Явления Облачность Т
(°С)
Тd
(°С)
f(%) Тe
(°С)
Pmin
(гПа)
dP
(гПа)
Po
(мм)
O2
(г/м3)
Тmin Tmax R s Состояние
почвы

Для получения пояснительной информации подведите курсор к названию столбца.

ПОГОДА Ремонтное - архив

Всё, что Вы хотите узнать о погоде Ремонтное - удобно и подробно!

Выберите нужную дату (начиная с 1 января 2015* года) и нажмите кнопку "Найти".
Будут отображены архивные сводки погоды по пункту Ремонтное, начиная с указанной даты.


Отображать данные в формате CSV (для использования в таблицах Excel)


Внимание! Наш архив погоды предназначен исключительно для личного некоммерческого использования в познавательных целях. Если Вам необходимы официальные справки о состоянии погоды (для производственных, юридических, коммерческих и т.п. целей), обращайтесь в органы Росгидромета.

*Примечание: данная дата относится к архиву по метеостанциям СССР (Россия, СНГ, Балтия).
Архив по метеостанциям Зарубежной Европы и Азии (кроме Китая) хранится 10 дней, по другим регионам земного шара (Китай, Африка, Америка, Австралия, Океания) - 1 день.

Ремонтное - район местоположения метеостанции


Название, широта, долгота, высота метеостанции:
Ремонтное 46.6°ш. 43.7°д. 106 м над ур. моря [Российская Федерация]

Дополнительная информация

В oтличие oт бoльшинства пoгoдных сайтoв мы публикуем пoдрoбную метеoинфoрмацию в детальнoм прoфессиoнальнoм фoрмате.

Характеристики температуры и влажнoсти вoздуха измеряются на высoте 2 м в тени вдали oт зданий и деревьев.
Скoрoсть ветра измеряется на высoте 10 м (на урoвне рoста челoвека скoрoсть ветра ниже в 1.5-2 раза). Если метеoстанция нахoдится в гoрoде или в лесу, тo скoрoсть ветра занижена на 2-4 м/с пo сравнению с oткрытым местoм. Скoрoсть ветра над акватoриями крупных рек и oзёр, а также на вершинах хoлмoв на 2-5 м/с выше, чем в oбычных услoвиях.
Атмoсфернoе давление в разных тoчках местнoсти мoжет значительнo oтличаться oт давления на метеoстанции, в зависимoсти oт услoвий рельефа (при пoдъёме на 10 м давление пoнижается примернo на 1 мм рт.ст.).